Mackinac Island, MI

1:43 AM EDT on June 23, 2017 (GMT -0400)
Mackinac Island

Weather History for KMCD - June, 2013

Change the Weather History Date:

Tuesday, June 25, 2013

  Actual Average Record
Temperature  
Mean Temperature 66 °F -  
Max Temperature 70 °F 68 °F 86 °F (2003)
Min Temperature 61 °F 53 °F 38 °F (1979)
Growing Degree Days 16 (Base 50)    
Moisture  
Dew Point 63 °F    
Average Humidity 89    
Maximum Humidity 96    
Minimum Humidity 82    
Precipitation  
Precipitation 0.86 in - - ()
Sea Level Pressure  
Sea Level Pressure 29.84 in    
Wind  
Wind Speed 8 mph (WSW)    
Max Wind Speed 16 mph    
Max Gust Speed 23 mph    
Visibility 8 miles    
Events Fog , Rain    
Averages and records for this station are not official NWS values.
T = Trace of Precipitation, MM = Missing Value Source: NWS Daily Summary

Daily Weather History Graph

Daily Weather History Graph

Search for Another Location

Airport or City:

Trip Planner

Search our weather history database for the weather conditions in past years. The results will help you decide how hot, cold, wet, or windy it might be!

Date:

Astronomy

Jun. 25, 2013 Rise Set
Actual Time 5:49 AM EDT 9:32 PM EDT
Civil Twilight 5:11 AM EDT 10:11 PM EDT
Nautical Twilight 4:19 AM EDT 11:02 PM EDT
Astronomical Twilight 3:08 AM EDT 12:14 AM EDT
Moon 11:06 PM EDT (6/25) 8:37 AM EDT (6/25)
Length of Visible Light 17h 00m
Length of Day
15h 43m
Waning Gibbous, 93% of the Moon is Illuminated
Jun 25
Waning Gibbous
Jun 30
Last Quarter
Jul 8
New
Jul 15
First Quarter
Jul 22
Full

Hourly Weather History & Observations

Time (EDT) Temp. Dew Point Humidity Pressure Visibility Wind Dir Wind Speed Gust Speed Precip Events Conditions
12:13 AM 64.6 °F 60.8 °F 88% 29.87 in 10.0 mi WSW 10.4 mph - N/A   Clear
12:34 AM 64.4 °F 60.8 °F 88% 29.87 in 10.0 mi WSW 9.2 mph - N/A   Scattered Clouds
12:53 AM 64.4 °F 60.8 °F 88% 29.87 in 10.0 mi WSW 6.9 mph - N/A   Scattered Clouds
1:13 AM 64.0 °F 60.8 °F 89% 29.87 in 10.0 mi SW 6.9 mph - N/A   Clear
1:34 AM 64.0 °F 60.8 °F 89% 29.86 in 10.0 mi WSW 5.8 mph - N/A   Clear
1:53 AM 64.6 °F 61.7 °F 90% 29.85 in 10.0 mi SSW 5.8 mph - N/A   Clear
2:13 AM 64.4 °F 61.2 °F 89% 29.84 in 10.0 mi SSW 4.6 mph - N/A   Clear
2:34 AM 64.4 °F 61.2 °F 89% 29.83 in 10.0 mi South 5.8 mph - N/A   Clear
2:53 AM 64.2 °F 61.2 °F 90% 29.83 in 10.0 mi South 5.8 mph - N/A   Clear
3:13 AM 63.7 °F 61.0 °F 91% 29.82 in 10.0 mi Calm Calm - N/A   Clear
3:34 AM 63.3 °F 61.2 °F 93% 29.83 in 10.0 mi Calm Calm - N/A   Clear
3:53 AM 63.3 °F 61.3 °F 93% 29.83 in 10.0 mi Calm Calm - N/A   Clear
4:13 AM 63.5 °F 61.2 °F 92% 29.83 in 10.0 mi SSW 5.8 mph - N/A   Clear
4:34 AM 64.8 °F 62.4 °F 92% 29.82 in 10.0 mi South 5.8 mph - N/A   Clear
4:53 AM 64.4 °F 62.2 °F 93% 29.82 in 10.0 mi SW 5.8 mph - N/A   Clear
5:14 AM 64.9 °F 62.4 °F 92% 29.82 in 10.0 mi WSW 3.5 mph - N/A   Scattered Clouds
5:34 AM 64.4 °F 61.9 °F 92% 29.83 in 10.0 mi NW 3.5 mph - N/A   Overcast
5:53 AM 64.6 °F 62.2 °F 92% 29.85 in 10.0 mi West 12.7 mph 19.6 mph N/A   Overcast
6:13 AM 65.5 °F 63.0 °F 92% 29.86 in 2.5 mi WSW 5.8 mph 21.9 mph 0.25 in Rain Heavy Rain
6:34 AM 66.2 °F 64.6 °F 94% 29.83 in 2.5 mi SW 16.1 mph 21.9 mph 0.67 in Rain Heavy Rain
6:53 AM 65.8 °F 64.0 °F 94% 29.83 in 4.0 mi SW 11.5 mph - 0.73 in Rain Rain
7:14 AM 66.0 °F 64.0 °F 93% 29.84 in 5.0 mi SW 13.8 mph 18.4 mph N/A   Overcast
7:34 AM 64.9 °F 63.0 °F 93% 29.83 in 4.0 mi WSW 12.7 mph 21.9 mph 0.02 in Rain Light Rain
7:53 AM 63.9 °F 62.1 °F 94% 29.83 in 2.5 mi SW 8.1 mph 17.3 mph 0.12 in Rain Rain
8:14 AM 63.5 °F 61.9 °F 94% 29.83 in 2.0 mi South 10.4 mph 16.1 mph 0.01 in Rain Light Rain
8:34 AM 64.4 °F 62.8 °F 94% 29.83 in 4.0 mi SSW 8.1 mph - 0.01 in Rain Light Rain
8:53 AM 66.2 °F 64.0 °F 93% 29.83 in 10.0 mi WSW 6.9 mph - 0.01 in   Scattered Clouds
9:14 AM 66.2 °F 64.4 °F 94% 29.83 in 5.0 mi WSW 9.2 mph - N/A   Clear
9:33 AM 66.7 °F 64.4 °F 92% 29.82 in 7.0 mi WSW 10.4 mph - N/A   Scattered Clouds
9:53 AM 68.4 °F 65.3 °F 90% 29.82 in 10.0 mi WSW 10.4 mph - N/A   Scattered Clouds
10:14 AM 68.2 °F 64.9 °F 89% 29.83 in 10.0 mi WSW 9.2 mph - N/A   Scattered Clouds
10:34 AM 69.1 °F 65.5 °F 88% 29.83 in 10.0 mi SW 5.8 mph - N/A   Mostly Cloudy
10:53 AM 68.4 °F 63.9 °F 85% 29.84 in 10.0 mi WSW 8.1 mph - N/A   Overcast
11:14 AM 68.4 °F 64.0 °F 86% 29.84 in 10.0 mi WSW 8.1 mph 18.4 mph N/A   Overcast
11:34 AM 69.3 °F 64.8 °F 86% 29.85 in 10.0 mi WSW 12.7 mph 18.4 mph N/A   Overcast
11:53 AM 70.3 °F 65.3 °F 84% 29.85 in 10.0 mi WSW 11.5 mph - N/A   Overcast
12:14 PM 70.2 °F 64.9 °F 83% 29.85 in 10.0 mi WSW 13.8 mph 18.4 mph N/A   Overcast
12:33 PM 70.2 °F 65.3 °F 85% 29.85 in 10.0 mi West 9.2 mph 16.1 mph N/A   Overcast
12:53 PM 69.8 °F 64.9 °F 84% 29.85 in 10.0 mi WSW 9.2 mph 16.1 mph N/A   Overcast
1:14 PM 69.1 °F 64.9 °F 87% 29.85 in 7.0 mi WSW 11.5 mph 19.6 mph N/A   Overcast
1:33 PM 68.5 °F 64.4 °F 87% 29.85 in 7.0 mi WSW 15.0 mph 20.7 mph N/A   Overcast
1:54 PM 68.5 °F 64.6 °F 87% 29.85 in 7.0 mi WSW 12.7 mph 19.6 mph N/A   Overcast
2:13 PM 68.7 °F 64.6 °F 87% 29.85 in 7.0 mi WSW 9.2 mph - N/A   Mostly Cloudy
2:33 PM 68.2 °F 63.5 °F 85% 29.84 in 7.0 mi WSW 8.1 mph 18.4 mph N/A   Scattered Clouds
2:54 PM 68.5 °F 63.9 °F 85% 29.84 in 7.0 mi WSW 6.9 mph 17.3 mph N/A   Clear
3:13 PM 68.9 °F 64.4 °F 86% 29.83 in 7.0 mi WSW 13.8 mph 19.6 mph N/A   Clear
3:33 PM 70.2 °F 64.9 °F 83% 29.83 in 10.0 mi WSW 13.8 mph 21.9 mph N/A   Scattered Clouds
3:54 PM 70.0 °F 64.8 °F 83% 29.83 in 10.0 mi WSW 13.8 mph 19.6 mph N/A   Clear
4:13 PM 69.3 °F 64.0 °F 83% 29.83 in 10.0 mi WSW 15.0 mph 23.0 mph N/A   Clear
4:33 PM 69.1 °F 64.8 °F 86% 29.83 in 10.0 mi WSW 15.0 mph 21.9 mph N/A   Scattered Clouds
4:54 PM 69.4 °F 64.9 °F 86% 29.83 in 10.0 mi WSW 11.5 mph 23.0 mph N/A   Scattered Clouds
5:13 PM 69.3 °F 64.9 °F 86% 29.83 in 10.0 mi WSW 8.1 mph 19.6 mph N/A   Scattered Clouds
5:33 PM 70.0 °F 64.6 °F 83% 29.83 in 10.0 mi WSW 13.8 mph 20.7 mph N/A   Mostly Cloudy
5:54 PM 70.3 °F 64.8 °F 82% 29.82 in 10.0 mi West 10.4 mph 18.4 mph N/A   Clear
6:13 PM 69.8 °F 64.4 °F 83% 29.83 in 10.0 mi WSW 12.7 mph 18.4 mph N/A   Clear
6:33 PM 68.9 °F 63.7 °F 83% 29.83 in 10.0 mi West 11.5 mph 19.6 mph N/A   Scattered Clouds
6:54 PM 68.0 °F 63.7 °F 86% 29.83 in 10.0 mi WSW 8.1 mph 18.4 mph N/A   Mostly Cloudy
7:13 PM 67.3 °F 63.5 °F 88% 29.84 in 10.0 mi West 10.4 mph - N/A   Mostly Cloudy
7:33 PM 67.1 °F 63.3 °F 88% 29.84 in 10.0 mi West 11.5 mph - N/A   Mostly Cloudy
7:53 PM 65.7 °F 62.6 °F 90% 29.83 in 10.0 mi West 8.1 mph - N/A   Mostly Cloudy
8:13 PM 65.5 °F 62.8 °F 91% 29.83 in 10.0 mi West 6.9 mph - N/A   Mostly Cloudy
8:34 PM 65.1 °F 62.6 °F 92% 29.83 in 7.0 mi West 8.1 mph - N/A   Clear
8:53 PM 64.2 °F 62.1 °F 93% 29.82 in 5.0 mi West 10.4 mph - N/A   Clear
9:13 PM 63.5 °F 61.9 °F 94% 29.82 in 4.0 mi WSW 8.1 mph - N/A   Clear
9:34 PM 62.8 °F 61.3 °F 95% 29.82 in 1.0 mi WSW 5.8 mph - N/A   Overcast
9:53 PM 62.2 °F 60.8 °F 95% 29.83 in 0.2 mi West 5.8 mph - N/A Fog Fog
10:13 PM 61.9 °F 60.8 °F 96% 29.83 in 0.2 mi WSW 6.9 mph - N/A Fog Fog
10:34 PM 62.4 °F 61.0 °F 95% 29.83 in 1.0 mi WSW 8.1 mph - N/A   Overcast
10:53 PM 63.0 °F 61.7 °F 96% 29.83 in 7.0 mi SW 9.2 mph - N/A   Scattered Clouds
11:13 PM 63.1 °F 61.7 °F 95% 29.83 in 10.0 mi WSW 9.2 mph - N/A   Clear
11:34 PM 63.0 °F 61.3 °F 94% 29.83 in 10.0 mi WSW 8.1 mph - N/A   Clear
11:53 PM 62.4 °F 60.8 °F 94% 29.83 in 7.0 mi WNW 3.5 mph - N/A   Clear